DW2851 Weather Reports


Display with metric or nautical units.
time (UTC)temp
F
wind
direction
speed
MPH
gust
MPH
rain 1hr
in
rain 24hr
in
rain mn
in
humidity
%
barometer
mb
20230129192018 47 242 9.0 21.0 0.00 0.01 0.00 85 1014.9
20230129191018 47 231 8.0 19.0 0.00 0.01 0.00 85 1014.8
20230129190520 47 239 9.0 21.0 0.00 0.01 0.00 85 1014.8
20230129190017 47 251 9.0 21.0 0.00 0.01 0.00 85 1014.8
20230129185516 47 222 8.0 21.0 0.00 0.01 0.00 85 1014.9
20230129185016 46 263 11.0 21.0 0.00 0.01 0.00 85 1014.9
20230129184516 46 240 10.0 20.0 0.00 0.01 0.00 86 1015.0
20230129184016 46 225 11.0 18.0 0.00 0.01 0.00 86 1015.0
20230129183514 46 240 8.0 18.0 0.00 0.01 0.00 85 1014.9
20230129183014 46 228 10.0 20.0 0.00 0.01 0.00 85 1014.8
20230129182514 46 225 9.0 21.0 0.00 0.01 0.00 85 1015.0
20230129182012 46 227 8.0 23.0 0.00 0.01 0.00 85 1015.1
20230129181019 46 242 13.0 22.0 0.00 0.01 0.00 86 1015.1
20230129180514 46 229 11.0 24.0 0.00 0.01 0.00 86 1015.4
20230129180014 45 240 12.0 24.0 0.00 0.01 0.00 86 1015.4
20230129175513 45 241 11.0 21.0 0.00 0.01 0.00 86 1015.4
20230129175012 45 183 10.0 20.0 0.00 0.01 0.00 86 1015.5
20230129174511 45 252 9.0 20.0 0.00 0.01 0.00 87 1015.7
20230129174008 45 200 11.0 20.0 0.00 0.01 0.00 87 1015.8
20230129173510 45 189 10.0 20.0 0.00 0.01 0.01 87 1015.8
20230129173010 45 229 9.0 23.0 0.00 0.01 0.01 87 1016.1
20230129172509 45 194 11.0 23.0 0.00 0.01 0.01 87 1016.2
20230129172009 45 230 9.0 16.0 0.00 0.01 0.01 87 1016.1
20230129171027 45 241 9.0 20.0 0.00 0.01 0.01 87 1016.5
20230129170526 45 244 12.0 24.0 0.00 0.01 0.01 87 1016.3
20230129170026 45 225 10.0 24.0 0.00 0.01 0.01 87 1016.3
20230129165527 45 244 10.0 19.0 0.00 0.01 0.01 87 1016.3
20230129165025 45 254 7.0 19.0 0.00 0.01 0.01 87 1016.4
20230129164539 45 241 9.0 17.0 0.00 0.01 0.01 87 1016.2
20230129164025 45 210 8.0 21.0 0.00 0.01 0.01 86 1016.3
20230129163525 45 252 9.0 21.0 0.00 0.01 0.01 86 1016.4
20230129163033 45 239 11.0 21.0 0.00 0.01 0.01 86 1016.5
20230129162526 45 205 11.0 20.0 0.00 0.01 0.01 86 1015.9
20230129162024 45 206 13.0 23.0 0.00 0.01 0.01 86 1015.9
20230129161005 45 240 12.0 25.0 0.00 0.01 0.01 86 1015.8
20230129160504 45 182 12.0 25.0 0.00 0.01 0.01 86 1015.7
20230129160008 45 261 13.0 25.0 0.00 0.01 0.01 86 1015.8
20230129155503 45 224 13.0 19.0 0.00 0.01 0.01 86 1015.8
20230129155003 45 252 13.0 23.0 0.00 0.01 0.01 86 1016.1
20230129154504 45 218 8.0 23.0 0.00 0.01 0.01 86 1016.2
20230129154002 45 222 8.0 21.0 0.00 0.01 0.01 85 1016.2
20230129153501 45 245 6.0 21.0 0.00 0.01 0.01 85 1016.6
20230129153122 46 215 9.0 20.0 0.00 0.01 0.01 85 1016.6
20230129153000 46 254 10.0 20.0 0.00 0.01 0.01 85 1016.5
20230129152601 46 240 9.0 20.0 0.00 0.01 0.01 85 1016.4
20230129152059 46 227 9.0 20.0 0.00 0.01 0.01 85 1016.5
20230129151700 45 221 6.0 16.0 0.00 0.01 0.01 85 1016.9
20230129151058 45 240 7.0 16.0 0.00 0.01 0.01 85 1016.9
20230129150558 45 211 5.0 16.0 0.00 0.01 0.01 85 1016.9
20230129150059 45 235 9.0 21.0 0.00 0.01 0.01 85 1017.1
20230129145558 45 225 7.0 21.0 0.00 0.01 0.01 85 1017.2
20230129145055 45 238 8.0 21.0 0.00 0.01 0.01 85 1017.2
20230129144554 45 237 11.0 21.0 0.00 0.01 0.01 85 1017.4
20230129144053 45 238 10.0 19.0 0.00 0.01 0.01 85 1017.5
20230129143552 45 226 9.0 18.0 0.00 0.01 0.01 84 1017.6
20230129143053 45 246 9.0 21.0 0.00 0.01 0.01 84 1017.6
20230129142554 45 254 9.0 25.0 0.00 0.01 0.01 83 1017.7
20230129142052 45 232 13.0 25.0 0.00 0.01 0.01 83 1017.6
20230129141651 46 226 6.0 20.0 0.00 0.01 0.01 82 1017.9
20230129141052 46 292 8.0 20.0 0.00 0.01 0.01 82 1017.9
20230129140653 46 231 9.0 21.0 0.00 0.01 0.01 82 1018.2
20230129140106 46 272 11.0 20.0 0.00 0.01 0.01 82 1018.0
20230129135551 46 241 9.0 20.0 0.00 0.01 0.01 81 1018.1
20230129135051 46 240 10.0 20.0 0.00 0.01 0.01 81 1018.0
20230129134552 46 240 8.0 21.0 0.00 0.01 0.01 81 1018.3
20230129134050 47 257 9.0 24.0 0.00 0.01 0.01 80 1018.3
20230129133650 47 258 9.0 24.0 0.00 0.01 0.01 80 1018.3
20230129133050 47 210 11.0 21.0 0.00 0.01 0.01 79 1018.2
20230129132550 47 261 10.0 19.0 0.00 0.01 0.01 78 1018.3
20230129132049 47 216 9.0 19.0 0.00 0.01 0.01 78 1018.1
20230129131651 48 233 5.0 18.0 0.00 0.01 0.01 77 1018.3
20230129131047 48 208 6.0 15.0 0.00 0.01 0.01 76 1018.5
20230129130545 48 242 6.0 15.0 0.00 0.01 0.01 76 1018.8
20230129130110 48 240 7.0 16.0 0.00 0.01 0.01 77 1018.9
20230129125543 48 208 7.0 18.0 0.00 0.01 0.01 77 1018.9
20230129125043 47 247 10.0 21.0 0.00 0.01 0.01 78 1019.0
20230129124546 47 240 10.0 20.0 0.00 0.01 0.01 78 1018.9
20230129124143 47 248 8.0 18.0 0.00 0.01 0.01 77 1019.0
20230129123542 47 230 9.0 18.0 0.00 0.01 0.01 77 1019.0
20230129123041 47 281 7.0 16.0 0.00 0.01 0.01 76 1019.2
20230129122539 47 204 6.0 16.0 0.00 0.01 0.01 76 1019.4
20230129122041 47 255 8.0 17.0 0.00 0.01 0.01 75 1019.5
20230129121638 48 244 7.0 17.0 0.00 0.01 0.01 75 1019.6
20230129121039 48 258 5.0 14.0 0.00 0.01 0.01 76 1019.8
20230129120539 48 180 8.0 16.0 0.00 0.01 0.01 76 1019.9
20230129120040 48 219 8.0 15.0 0.00 0.01 0.01 76 1020.0
20230129115538 48 238 5.0 17.0 0.00 0.01 0.01 77 1020.2
20230129115036 47 225 9.0 18.0 0.00 0.01 0.01 78 1020.3
20230129114538 47 249 9.0 18.0 0.00 0.01 0.01 79 1020.5
20230129114034 47 238 6.0 16.0 0.00 0.01 0.01 80 1020.6
20230129113532 46 263 7.0 16.0 0.00 0.01 0.01 81 1020.6
20230129113032 46 260 7.0 16.0 0.00 0.01 0.01 80 1020.7
20230129112531 46 239 7.0 16.0 0.00 0.01 0.01 80 1020.7
20230129112030 45 220 8.0 14.0 0.00 0.01 0.01 81 1020.6
20230129111629 45 240 5.0 18.0 0.00 0.01 0.01 80 1020.7
20230129111032 45 268 6.0 18.0 0.00 0.01 0.01 81 1020.9
20230129110532 45 205 9.0 18.0 0.00 0.01 0.01 82 1020.9
20230129110034 45 207 5.0 17.0 0.00 0.01 0.01 83 1021.0
20230129105531 44 254 6.0 17.0 0.00 0.01 0.01 83 1021.1
20230129105027 43 259 7.0 17.0 0.00 0.01 0.01 83 1021.1
20230129104525 43 242 8.0 18.0 0.00 0.01 0.01 84 1021.0
20230129104023 43 242 9.0 21.0 0.00 0.01 0.01 84 1020.9
20230129103524 43 244 11.0 21.0 0.00 0.01 0.01 84 1021.1
20230129103022 43 236 11.0 19.0 0.00 0.01 0.01 84 1021.0
20230129102525 43 245 9.0 19.0 0.00 0.01 0.01 84 1021.0
20230129102022 43 256 9.0 20.0 0.00 0.01 0.01 84 1021.1
20230129101620 42 248 8.0 21.0 0.00 0.01 0.01 85 1021.1
20230129101015 42 233 7.0 21.0 0.00 0.01 0.01 85 1021.2
20230129100516 42 242 8.0 20.0 0.00 0.01 0.01 85 1021.1
20230129100031 42 230 8.0 20.0 0.00 0.01 0.01 85 1021.0
20230129095514 42 229 9.0 24.0 0.00 0.01 0.01 85 1021.0
20230129095011 42 237 9.0 18.0 0.00 0.01 0.01 85 1021.2
20230129094510 41 246 10.0 20.0 0.00 0.01 0.01 85 1021.2
20230129094009 41 202 8.0 20.0 0.00 0.01 0.01 85 1021.3
20230129093507 41 234 8.0 19.0 0.00 0.01 0.01 85 1021.5
20230129093008 41 236 10.0 19.0 0.00 0.01 0.01 86 1021.5
20230129092505 41 236 9.0 20.0 0.00 0.01 0.01 86 1021.7
20230129092005 41 244 10.0 18.0 0.00 0.01 0.01 86 1021.8
20230129091604 41 244 12.0 19.0 0.00 0.01 0.01 86 1021.7
20230129091004 41 235 11.0 18.0 0.00 0.01 0.01 86 1021.7
20230129090506 41 255 10.0 17.0 0.00 0.01 0.01 87 1021.8
20230129090002 41 242 10.0 15.0 0.00 0.01 0.01 87 1021.8
20230129085503 41 211 8.0 17.0 0.00 0.01 0.01 87 1021.9
20230129085000 41 259 9.0 17.0 0.00 0.01 0.01 87 1022.0
20230129084600 41 240 9.0 17.0 0.00 0.01 0.01 87 1022.0
20230129084058 41 236 6.0 16.0 0.00 0.01 0.01 87 1022.2
20230129083558 41 229 4.0 17.0 0.00 0.01 0.01 87 1022.1
20230129083059 41 228 6.0 17.0 0.00 0.01 0.01 87 1022.2
20230129082556 41 239 6.0 16.0 0.00 0.01 0.01 87 1022.2
20230129082055 41 264 7.0 18.0 0.00 0.01 0.01 87 1022.2
20230129081614 41 238 9.0 17.0 0.00 0.01 0.01 87 1022.2
20230129081057 41 242 9.0 17.0 0.00 0.01 0.01 87 1022.2
20230129080553 41 220 9.0 17.0 0.00 0.01 0.01 87 1022.2
20230129080053 41 211 7.0 16.0 0.00 0.01 0.01 87 1022.3
20230129075553 41 221 6.0 16.0 0.00 0.01 0.01 87 1022.2
20230129075052 41 263 7.0 19.0 0.00 0.01 0.01 87 1022.3
20230129074552 41 235 9.0 19.0 0.00 0.01 0.01 87 1022.4
20230129074051 41 234 6.0 17.0 0.00 0.01 0.01 87 1022.5
20230129073550 41 241 8.0 17.0 0.00 0.01 0.01 88 1022.5
20230129073050 41 233 8.0 17.0 0.00 0.01 0.01 88 1022.5
20230129072550 41 229 7.0 16.0 0.00 0.01 0.01 88 1022.5
20230129072050 41 252 7.0 16.0 0.00 0.01 0.01 88 1022.5
20230129071556 41 247 7.0 12.0 0.00 0.01 0.01 88 1022.6
20230129071051 41 262 6.0 12.0 0.00 0.01 0.01 88 1022.6
20230129070549 41 244 6.0 18.0 0.00 0.01 0.01 88 1022.7
20230129070134 41 231 7.0 14.0 0.00 0.01 0.01 88 1022.7
20230129065548 41 204 7.0 14.0 0.00 0.01 0.01 88 1022.8
20230129065047 41 236 6.0 17.0 0.00 0.01 0.01 88 1022.8
20230129064546 41 232 8.0 17.0 0.00 0.01 0.01 89 1022.9
20230129064048 41 219 6.0 13.0 0.00 0.01 0.01 89 1023.0
20230129063544 41 217 6.0 12.0 0.00 0.01 0.01 89 1023.2
20230129063044 41 244 6.0 13.0 0.00 0.01 0.01 89 1023.2
20230129062543 41 221 5.0 14.0 0.00 0.01 0.01 89 1023.1
20230129062042 41 225 5.0 14.0 0.00 0.01 0.01 89 1023.2
20230129061543 40 237 6.0 13.0 0.00 0.01 0.01 89 1023.2
20230129061040 40 241 6.0 13.0 0.00 0.01 0.01 89 1023.2
20230129060539 40 242 5.0 9.0 0.00 0.01 0.01 89 1023.3
20230129060037 40 231 5.0 9.0 0.00 0.01 0.01 90 1023.5
20230129055537 40 232 3.0 9.0 0.00 0.01 0.01 90 1023.6
20230129055034 40 207 5.0 10.0 0.00 0.01 0.01 90 1023.6
20230129054535 40 223 4.0 9.0 0.00 0.01 0.01 90 1023.7
20230129054032 40 234 3.0 9.0 0.00 0.01 0.01 89 1023.8
20230129053535 40 242 3.0 9.0 0.00 0.01 0.01 90 1023.9
20230129053032 41 240 1.0 7.0 0.00 0.01 0.01 90 1024.0
20230129052528 41 239 0.0 4.0 0.00 0.01 0.01 90 1024.2
20230129052027 41 238 0.0 5.0 0.00 0.01 0.01 90 1024.3
20230129051528 41 244 2.0 10.0 0.00 0.01 0.01 90 1024.3
20230129051026 41 244 1.0 11.0 0.00 0.01 0.01 90 1024.4
20230129050526 41 221 3.0 14.0 0.00 0.01 0.01 90 1024.5
20230129050026 41 258 4.0 11.0 0.00 0.01 0.01 90 1024.6
20230129045525 41 236 4.0 14.0 0.00 0.01 0.01 90 1024.6
20230129045024 41 225 4.0 14.0 0.00 0.01 0.01 90 1024.6
20230129044530 41 221 5.0 11.0 0.00 0.01 0.01 90 1024.7
20230129044023 42 240 4.0 14.0 0.00 0.01 0.01 90 1024.6
20230129043522 42 240 5.0 11.0 0.00 0.01 0.01 90 1024.8
20230129043022 42 240 3.0 9.0 0.00 0.01 0.01 90 1025.0
20230129042525 41 243 2.0 8.0 0.00 0.01 0.01 90 1025.0
20230129042019 41 230 2.0 8.0 0.00 0.01 0.01 90 1025.1
20230129041520 41 238 2.0 5.0 0.00 0.01 0.01 90 1025.3
20230129041020 41 239 1.0 5.0 0.00 0.01 0.01 90 1025.3
20230129040520 41 242 0.0 4.0 0.00 0.01 0.01 90 1025.4
20230129040027 41 242 1.0 4.0 0.00 0.01 0.01 90 1025.5
20230129035520 41 241 1.0 4.0 0.00 0.01 0.01 90 1025.5
20230129035019 41 235 0.0 4.0 0.00 0.01 0.01 90 1025.5
20230129034519 41 234 0.0 4.0 0.00 0.01 0.01 90 1025.5
20230129034018 41 233 0.0 5.0 0.00 0.01 0.01 90 1025.5
20230129033517 41 232 2.0 5.0 0.00 0.01 0.01 90 1025.5
20230129033016 41 232 2.0 4.0 0.00 0.01 0.01 90 1025.7
20230129032516 40 233 1.0 3.0 0.00 0.01 0.01 90 1025.7
20230129032016 40 233 0.0 0.0 0.00 0.01 0.01 90 1025.9
20230129031514 40 233 0.0 0.0 0.00 0.01 0.01 90 1026.0
20230129031014 40 233 0.0 0.0 0.00 0.01 0.01 90 1026.0
20230129030512 40 233 0.0 0.0 0.00 0.01 0.01 90 1026.1
20230129030014 40 233 0.0 0.0 0.00 0.01 0.01 90 1026.0
20230129025513 41 233 0.0 0.0 0.00 0.01 0.01 90 1026.1
20230129025013 41 233 0.0 0.0 0.00 0.01 0.01 90 1026.1
20230129024514 41 233 0.0 1.0 0.00 0.01 0.01 90 1026.1
20230129024012 41 233 0.0 1.0 0.00 0.01 0.01 90 1026.1
20230129023511 41 233 0.0 0.0 0.00 0.01 0.01 90 1026.2
20230129023011 41 233 0.0 0.0 0.00 0.01 0.01 90 1026.2
20230129022510 41 233 0.0 0.0 0.00 0.01 0.01 90 1026.1
20230129022011 41 233 0.0 0.0 0.00 0.01 0.01 90 1026.2
20230129021510 41 233 0.0 0.0 0.00 0.01 0.01 90 1026.3
20230129021013 41 233 0.0 0.0 0.00 0.01 0.01 90 1026.3
20230129020514 41 233 0.0 0.0 0.00 0.01 0.01 90 1026.4
20230129020012 41 233 0.0 0.0 0.00 0.01 0.01 90 1026.4
20230129015511 41 233 0.0 0.0 0.00 0.01 0.01 90 1026.5
20230129015011 41 233 0.0 0.0 0.00 0.01 0.01 90 1026.5
20230129014510 41 233 0.0 0.0 0.00 0.01 0.01 90 1026.6
20230129014010 41 233 0.0 0.0 0.00 0.01 0.01 90 1026.6
20230129013510 41 233 0.0 0.0 0.00 0.01 0.01 90 1026.6
20230129013009 41 233 0.0 0.0 0.00 0.01 0.01 90 1026.6
20230129012509 41 233 0.0 0.0 0.00 0.01 0.01 90 1026.8
20230129012008 41 233 0.0 0.0 0.00 0.01 0.01 90 1026.9
20230129011508 41 233 0.0 0.0 0.00 0.01 0.01 90 1026.9
20230129011003 41 233 0.0 0.0 0.00 0.01 0.01 90 1026.9
20230129010502 41 233 0.0 0.0 0.00 0.01 0.01 90 1027.1
20230129010001 41 233 0.0 0.0 0.00 0.01 0.01 90 1027.3
20230129005502 41 233 0.0 2.0 0.00 0.01 0.01 90 1027.3
20230129005101 41 233 0.0 2.0 0.00 0.01 0.01 90 1027.3
20230129004603 41 233 0.0 2.0 0.00 0.01 0.01 90 1027.5
20230129004102 41 233 0.0 5.0 0.00 0.01 0.01 90 1027.5
20230129003558 41 233 1.0 5.0 0.00 0.01 0.01 90 1027.6
20230129003058 41 232 0.0 5.0 0.00 0.01 0.01 90 1027.6
20230129002558 41 232 0.0 4.0 0.00 0.01 0.01 90 1027.7
20230129002056 41 232 0.0 6.0 0.01 0.01 0.01 90 1027.7
20230129001556 41 231 1.0 6.0 0.01 0.01 0.01 90 1027.9
20230129000556 41 229 2.0 5.0 0.01 0.01 0.01 90 1027.8
20230129000058 41 225 1.0 6.0 0.01 0.01 0.01 90 1027.9
20230128235554 41 224 2.0 6.0 0.01 0.01 0.01 90 1028.0
20230128235054 41 226 2.0 5.0 0.01 0.01 0.01 90 1028.0
20230128234554 41 223 1.0 3.0 0.01 0.01 0.01 90 1028.0
20230128234052 41 223 1.0 4.0 0.01 0.01 0.01 90 1028.1
20230128233552 41 223 2.0 4.0 0.01 0.01 0.01 90 1028.2
20230128233050 41 223 1.0 3.0 0.01 0.01 0.01 90 1028.1
20230128232549 41 223 0.0 3.0 0.01 0.01 0.01 90 1028.2
20230128232051 41 223 0.0 3.0 0.01 0.01 0.01 90 1028.2
20230128231615 41 223 0.0 1.0 0.00 0.00 0.00 90 1028.3
20230128231021 41 223 0.0 1.0 0.00 0.00 0.00 90 1028.4
20230128230520 41 223 0.0 1.0 0.00 0.00 0.00 90 1028.4
20230128230021 41 223 0.0 0.0 0.00 0.00 0.00 90 1028.4
20230128225520 41 223 0.0 0.0 0.00 0.00 0.00 90 1028.4
20230128225019 41 223 0.0 0.0 0.00 0.00 0.00 90 1028.4
20230128224529 41 223 0.0 0.0 0.00 0.00 0.00 90 1028.4
20230128224019 41 223 0.0 0.0 0.00 0.00 0.00 90 1028.5
20230128223519 41 223 0.0 0.0 0.00 0.00 0.00 90 1028.5
20230128223026 41 223 0.0 0.0 0.00 0.00 0.00 90 1028.5
20230128222518 41 223 0.0 0.0 0.00 0.00 0.00 90 1028.5
20230128222020 41 223 0.0 0.0 0.00 0.00 0.00 90 1028.5
20230128221538 41 223 0.0 0.0 0.00 0.00 0.00 90 1028.6
20230128220546 41 223 0.0 0.0 0.00 0.00 0.00 89 1028.5
20230128220146 41 223 0.0 0.0 0.00 0.00 0.00 89 1028.6
20230128215550 41 223 0.0 0.0 0.00 0.00 0.00 89 1028.5
20230128215046 41 223 0.0 0.0 0.00 0.00 0.00 89 1028.5
20230128214545 41 223 0.0 0.0 0.00 0.00 0.00 89 1028.5
20230128214044 41 223 0.0 0.0 0.00 0.00 0.00 89 1028.7
20230128213548 41 223 0.0 0.0 0.00 0.00 0.00 89 1028.7
20230128213043 41 223 0.0 0.0 0.00 0.00 0.00 89 1028.6
20230128212544 41 223 0.0 0.0 0.00 0.00 0.00 89 1028.8
20230128212043 41 223 0.0 0.0 0.00 0.00 0.00 89 1028.8
20230128211604 41 223 0.0 0.0 0.00 0.00 0.00 89 1028.9
20230128210544 41 223 0.0 0.0 0.00 0.00 0.00 90 1028.8
20230128210042 41 223 0.0 0.0 0.00 0.00 0.00 90 1028.9
20230128205543 41 223 0.0 0.0 0.00 0.00 0.00 90 1028.9
20230128205042 41 223 0.0 1.0 0.00 0.00 0.00 90 1029.0
20230128204541 41 223 0.0 2.0 0.00 0.00 0.00 90 1029.0
20230128204042 41 223 0.0 3.0 0.00 0.00 0.00 89 1029.1
20230128203540 41 223 0.0 5.0 0.00 0.00 0.00 89 1029.3
20230128203041 41 223 1.0 5.0 0.00 0.00 0.00 89 1029.6
20230128202540 41 223 0.0 5.0 0.00 0.00 0.00 89 1029.2
20230128202039 41 223 0.0 7.0 0.00 0.00 0.00 90 1029.1
20230128201541 41 223 0.0 7.0 0.00 0.00 0.00 90 1029.1
20230128200539 41 235 1.0 10.0 0.00 0.00 0.00 90 1029.4
20230128200039 41 232 3.0 11.0 0.00 0.00 0.00 90 1029.4
20230128195536 41 240 2.0 5.0 0.00 0.00 0.00 90 1029.4
20230128195036 41 241 2.0 7.0 0.00 0.00 0.00 90 1029.5
20230128194536 41 242 3.0 7.0 0.00 0.00 0.00 90 1029.4
20230128194035 41 232 2.0 5.0 0.00 0.00 0.00 90 1029.4
20230128193535 41 234 2.0 5.0 0.00 0.00 0.00 90 1029.5
20230128193045 41 234 2.0 7.0 0.00 0.00 0.00 90 1029.6
20230128192536 41 237 1.0 7.0 0.00 0.00 0.00 90 1029.7